,,Stat6,,Stat2,,Stat8,,Stat9,,Stat10,,Wind1,,Wind1,
time,status,PA1M_AVG,status,PR1M_SUM,status,RH1M_AVG,status,SR1M_AVG,status,TA1M_AVG,status,W1dAve1m,status,W1sAve1m,
2003-12-23, 00:00:00,VALID,919.641,VALID,0,VALID,97.0984,VALID,-0.0339617,VALID,18.6452,VALID,98,VALID,0.322545,
2003-12-23, 00:01:00,VALID,919.632,VALID,0,VALID,97.3477,VALID,0,VALID,18.6509,VALID,103,VALID,0.472565,
2003-12-23, 00:02:00,VALID,919.62,VALID,0,VALID,97.4087,VALID,0,VALID,18.6541,VALID,103,VALID,0.420272,
2003-12-23, 00:03:00,VALID,919.609,VALID,0,VALID,97.4405,VALID,0,VALID,18.6348,VALID,119,VALID,0.627308,
2003-12-23, 00:04:00,VALID,919.607,VALID,0,VALID,97.4927,VALID,0,VALID,18.6348,VALID,123,VALID,0.683222,
2003-12-23, 00:05:00,VALID,919.614,VALID,0,VALID,97.5473,VALID,-0.0169808,VALID,18.6447,VALID,127,VALID,0.697173,
2003-12-23, 00:06:00,VALID,919.606,VALID,0,VALID,97.7864,VALID,0,VALID,18.6539,VALID,126,VALID,0.860647,
2003-12-23, 00:07:00,VALID,919.612,VALID,0,VALID,97.9962,VALID,-0.0169808,VALID,18.7093,VALID,126,VALID,0.817187,
2003-12-23, 00:08:00,VALID,919.603,VALID,0,VALID,97.9352,VALID,0,VALID,18.7577,VALID,124,VALID,0.787157,
2003-12-23, 00:09:00,VALID,919.603,VALID,0,VALID,97.925,VALID,0,VALID,18.7992,VALID,119,VALID,0.764717,
2003-12-23, 00:10:00,VALID,919.604,VALID,0,VALID,97.7126,VALID,0,VALID,18.8382,VALID,117,VALID,0.729789,
2003-12-23, 00:11:00,VALID,919.587,VALID,0,VALID,97.3858,VALID,-0.0339617,VALID,18.864,VALID,114,VALID,0.669779,
2003-12-23, 00:12:00,VALID,919.579,VALID,0,VALID,97.4558,VALID,0,VALID,18.9067,VALID,115,VALID,0.515443,
2003-12-23, 00:13:00,VALID,919.578,VALID,0,VALID,97.2765,VALID,0,VALID,18.9358,VALID,112,VALID,0.723133,
2003-12-23, 00:14:00,VALID,919.573,VALID,0,VALID,96.7513,VALID,-0.0169808,VALID,18.903,VALID,117,VALID,0.668826,
2003-12-23, 00:15:00,VALID,919.562,VALID,0,VALID,96.9993,VALID,-0.0509425,VALID,18.9,VALID,114,VALID,0.600038,
2003-12-23, 00:16:00,VALID,919.551,VALID,0,VALID,96.7653,VALID,-0.0339617,VALID,18.874,VALID,114,VALID,0.421875,
2003-12-23, 00:17:00,VALID,919.533,VALID,0,VALID,96.8619,VALID,0,VALID,18.8551,VALID,114,VALID,0.513963,
2003-12-23, 00:18:00,VALID,919.537,VALID,0,VALID,96.7322,VALID,0,VALID,18.8295,VALID,108,VALID,0.675114,
2003-12-23, 00:19:00,VALID,919.522,VALID,0,VALID,97.2917,VALID,0,VALID,18.7994,VALID,105,VALID,0.704241,
2003-12-23, 00:20:00,VALID,919.522,VALID,0,VALID,97.8436,VALID,-0.0169808,VALID,18.8285,VALID,94,VALID,0.650347,
2003-12-23, 00:21:00,VALID,919.519,VALID,0,VALID,97.8398,VALID,-0.0169808,VALID,18.8414,VALID,92,VALID,0.231957,
2003-12-23, 00:22:00,VALID,919.519,VALID,0,VALID,97.7088,VALID,-0.0169808,VALID,18.8389,VALID,92,VALID,0.396234,
2003-12-23, 00:23:00,VALID,919.504,VALID,0,VALID,97.7648,VALID,-0.0169808,VALID,18.8124,VALID,96,VALID,0.596912,
2003-12-23, 00:24:00,VALID,919.5,VALID,0,VALID,98.0255,VALID,-0.0169808,VALID,18.8158,VALID,104,VALID,0.480469,
2003-12-23, 00:25:00,VALID,919.484,VALID,0,VALID,98.1056,VALID,-0.0169808,VALID,18.8124,VALID,104,VALID,0.383903,
2003-12-23, 00:26:00,VALID,919.472,VALID,0,VALID,97.4291,VALID,-0.0339617,VALID,18.7575,VALID,104,VALID,0.464026,
2003-12-23, 00:27:00,VALID,919.451,VALID,0,VALID,97.3693,VALID,0,VALID,18.6673,VALID,104,VALID,0.279861,
2003-12-23, 00:28:00,VALID,919.427,VALID,0,VALID,97.8932,VALID,-0.0339617,VALID,18.6576,VALID,104,VALID,0.242914,
2003-12-23, 00:29:00,VALID,919.424,VALID,0,VALID,98.1463,VALID,0,VALID,18.6643,VALID,104,VALID,0.407813,
2003-12-23, 00:30:00,VALID,919.418,VALID,0,VALID,98.0255,VALID,-0.0339617,VALID,18.6449,VALID,104,VALID,0.443638,
2003-12-23, 00:31:00,VALID,919.426,VALID,0,VALID,98.0928,VALID,0,VALID,18.6223,VALID,104,VALID,0.306212,
2003-12-23, 00:32:00,VALID,919.424,VALID,0,VALID,98.1145,VALID,-0.0169808,VALID,18.6066,VALID,104,VALID,0.238467,
2003-12-23, 00:33:00,VALID,919.424,VALID,0,VALID,98.3879,VALID,-0.0339617,VALID,18.6062,VALID,104,VALID,0.166159,
2003-12-23, 00:34:00,VALID,919.421,VALID,0,VALID,98.0814,VALID,-0.0169808,VALID,18.584,VALID,104,VALID,0,
2003-12-23, 00:35:00,VALID,919.406,VALID,0,VALID,96.5555,VALID,0.0169808,VALID,18.3892,VALID,80,VALID,0.280362,
2003-12-23, 00:36:00,VALID,919.405,VALID,0,VALID,97.1213,VALID,-0.0169808,VALID,18.3059,VALID,72,VALID,0.359553,
2003-12-23, 00:37:00,VALID,919.4,VALID,0,VALID,97.4151,VALID,-0.0509425,VALID,18.2575,VALID,72,VALID,0.478051,
2003-12-23, 00:38:00,VALID,919.398,VALID,0,VALID,98.1132,VALID,-0.0679233,VALID,18.2741,VALID,72,VALID,0.382086,
2003-12-23, 00:39:00,VALID,919.394,VALID,0,VALID,98.5786,VALID,0,VALID,18.3029,VALID,72,VALID,0.237827,
2003-12-23, 00:40:00,VALID,919.384,VALID,0,VALID,98.88,VALID,-0.0339617,VALID,18.332,VALID,72,VALID,0.350419,
2003-12-23, 00:41:00,VALID,919.366,VALID,0,VALID,99.0771,VALID,-0.0679233,VALID,18.3742,VALID,72,VALID,0.366642,
2003-12-23, 00:42:00,VALID,919.346,VALID,0,VALID,98.7744,VALID,0,VALID,18.3578,VALID,72,VALID,0.460417,
2003-12-23, 00:43:00,VALID,919.315,VALID,0,VALID,98.9385,VALID,-0.0849042,VALID,18.338,VALID,85,VALID,0.622461,
2003-12-23, 00:44:00,VALID,919.293,VALID,0,VALID,99.2284,VALID,-0.0339617,VALID,18.3809,VALID,95,VALID,0.696875,
2003-12-23, 00:45:00,VALID,919.28,VALID,0,VALID,99.4814,VALID,-0.0339617,VALID,18.4161,VALID,103,VALID,0.871094,
2003-12-23, 00:46:00,VALID,919.259,VALID,0,VALID,99.3098,VALID,-0.0339617,VALID,18.4256,VALID,109,VALID,0.845567,
2003-12-23, 00:47:00,VALID,919.258,VALID,0,VALID,99.3098,VALID,-0.0339617,VALID,18.4226,VALID,109,VALID,0.898438,
2003-12-23, 00:48:00,VALID,919.261,VALID,0,VALID,99.4344,VALID,-0.0509425,VALID,18.4355,VALID,110,VALID,0.94093,
2003-12-23, 00:49:00,VALID,919.255,VALID,0,VALID,99.5921,VALID,-0.0509425,VALID,18.4708,VALID,119,VALID,0.887277,
2003-12-23, 00:50:00,VALID,919.244,VALID,0,VALID,99.7892,VALID,-0.0509425,VALID,18.5259,VALID,112,VALID,0.789825,
2003-12-23, 00:51:00,VALID,919.243,VALID,0,VALID,99.8642,VALID,-0.0339617,VALID,18.5937,VALID,105,VALID,1.00591,
2003-12-23, 00:52:00,VALID,919.244,VALID,0,VALID,99.7879,VALID,-0.0509425,VALID,18.6775,VALID,94,VALID,0.757813,
2003-12-23, 00:53:00,VALID,919.237,VALID,0,VALID,99.3174,VALID,-0.0339617,VALID,18.7266,VALID,93,VALID,0.56715,
2003-12-23, 00:54:00,VALID,919.222,VALID,0,VALID,99.0707,VALID,-0.0169808,VALID,18.7331,VALID,91,VALID,0.666788,
2003-12-23, 00:55:00,VALID,919.215,VALID,0,VALID,99.0377,VALID,-0.0169808,VALID,18.7582,VALID,95,VALID,0.934048,
2003-12-23, 00:56:00,VALID,919.209,VALID,0,VALID,98.894,VALID,-0.0169808,VALID,18.8131,VALID,99,VALID,0.868521,
2003-12-23, 00:57:00,VALID,919.199,VALID,0,VALID,98.646,VALID,0,VALID,18.8647,VALID,94,VALID,0.715402,
2003-12-23, 00:58:00,VALID,919.189,VALID,0,VALID,98.1513,VALID,-0.0339617,VALID,18.871,VALID,96,VALID,0.539789,
2003-12-23, 00:59:00,VALID,919.178,VALID,0,VALID,97.8627,VALID,-0.0339617,VALID,18.8677,VALID,111,VALID,0.733974,
2003-12-23, 01:00:00,VALID,919.148,VALID,0,VALID,97.3947,VALID,-0.0339617,VALID,18.8359,VALID,123,VALID,0.816501,
2003-12-23, 01:01:00,VALID,919.131,VALID,0,VALID,97.6948,VALID,-0.0339617,VALID,18.7994,VALID,114,VALID,1.02725,
2003-12-23, 01:02:00,VALID,919.115,VALID,0,VALID,97.5867,VALID,-0.0339617,VALID,18.7773,VALID,113,VALID,0.904576,
2003-12-23, 01:03:00,VALID,919.104,VALID,0,VALID,97.3896,VALID,0,VALID,18.7554,VALID,114,VALID,0.856517,
2003-12-23, 01:04:00,VALID,919.086,VALID,0,VALID,97.513,VALID,-0.0169808,VALID,18.6936,VALID,114,VALID,0.758371,
2003-12-23, 01:05:00,VALID,919.085,VALID,0,VALID,97.733,VALID,-0.0339617,VALID,18.6742,VALID,114,VALID,0.747275,
2003-12-23, 01:06:00,VALID,919.086,VALID,0,VALID,97.7495,VALID,0,VALID,18.6256,VALID,114,VALID,0.689317,
2003-12-23, 01:07:00,VALID,919.079,VALID,0,VALID,97.8563,VALID,-0.0169808,VALID,18.5767,VALID,114,VALID,0.685014,
2003-12-23, 01:08:00,VALID,919.079,VALID,0,VALID,97.8474,VALID,0,VALID,18.5446,VALID,114,VALID,0.617746,
2003-12-23, 01:09:00,VALID,919.071,VALID,0,VALID,98.2556,VALID,0,VALID,18.5125,VALID,114,VALID,0.705793,
2003-12-23, 01:10:00,VALID,919.073,VALID,0,VALID,98.6307,VALID,-0.0169808,VALID,18.5319,VALID,114,VALID,0.664789,
2003-12-23, 01:11:00,VALID,919.071,VALID,0,VALID,99.0008,VALID,-0.0169808,VALID,18.5481,VALID,114,VALID,0.704427,
2003-12-23, 01:12:00,VALID,919.082,VALID,0,VALID,99.1712,VALID,-0.0169808,VALID,18.5543,VALID,114,VALID,0.537919,
2003-12-23, 01:13:00,VALID,919.089,VALID,0,VALID,98.9995,VALID,0,VALID,18.5511,VALID,114,VALID,0.59375,
2003-12-23, 01:14:00,VALID,919.105,VALID,0,VALID,98.7185,VALID,-0.0339617,VALID,18.5061,VALID,122,VALID,0.786719,
2003-12-23, 01:15:00,VALID,919.088,VALID,0,VALID,98.4972,VALID,-0.0169808,VALID,18.4415,VALID,138,VALID,0.80522,
2003-12-23, 01:16:00,VALID,919.08,VALID,0,VALID,98.5722,VALID,0,VALID,18.4,VALID,135,VALID,0.758789,
2003-12-23, 01:17:00,VALID,919.062,VALID,0,VALID,98.7693,VALID,-0.0509425,VALID,18.361,VALID,130,VALID,0.730283,
2003-12-23, 01:18:00,VALID,919.039,VALID,0,VALID,99.2843,VALID,-0.0169808,VALID,18.4129,VALID,124,VALID,0.710547,
2003-12-23, 01:19:00,VALID,919.029,VALID,0,VALID,99.5883,VALID,-0.0169808,VALID,18.4703,VALID,122,VALID,0.62429,
2003-12-23, 01:20:00,VALID,919.023,VALID,0,VALID,99.7536,VALID,-0.0169808,VALID,18.555,VALID,118,VALID,0.45,
2003-12-23, 01:21:00,VALID,919.01,VALID,0,VALID,99.5628,VALID,-0.0169808,VALID,18.5838,VALID,118,VALID,0.25186,
2003-12-23, 01:22:00,VALID,918.984,VALID,0,VALID,99.3721,VALID,0,VALID,18.5803,VALID,118,VALID,0.238095,
2003-12-23, 01:23:00,VALID,918.96,VALID,0,VALID,99.2653,VALID,0,VALID,18.5769,VALID,118,VALID,0.336648,
2003-12-23, 01:24:00,VALID,918.933,VALID,0,VALID,99.0275,VALID,0,VALID,18.5644,VALID,118,VALID,0.449609,
2003-12-23, 01:25:00,VALID,918.906,VALID,0,VALID,98.9512,VALID,-0.0339617,VALID,18.5455,VALID,118,VALID,0.721839,
2003-12-23, 01:26:00,VALID,918.876,VALID,0,VALID,98.9715,VALID,-0.0169808,VALID,18.5393,VALID,118,VALID,0.772049,
2003-12-23, 01:27:00,VALID,918.863,VALID,0,VALID,99.1139,VALID,0,VALID,18.5386,VALID,116,VALID,0.880149,
2003-12-23, 01:28:00,VALID,918.845,VALID,0,VALID,99.0033,VALID,-0.0169808,VALID,18.5351,VALID,111,VALID,0.699013,
2003-12-23, 01:29:00,VALID,918.846,VALID,0,VALID,99.0326,VALID,-0.0169808,VALID,18.522,VALID,102,VALID,0.790153,
2003-12-23, 01:30:00,VALID,918.834,VALID,0,VALID,98.8698,VALID,-0.0169808,VALID,18.5033,VALID,109,VALID,0.499047,
2003-12-23, 01:31:00,VALID,918.819,VALID,0,VALID,98.6943,VALID,0,VALID,18.4678,VALID,109,VALID,0.511364,
2003-12-23, 01:32:00,VALID,918.807,VALID,0,VALID,98.6435,VALID,-0.0509425,VALID,18.4194,VALID,110,VALID,0.615371,
2003-12-23, 01:33:00,VALID,918.781,VALID,0,VALID,98.8126,VALID,-0.0169808,VALID,18.3998,VALID,110,VALID,0.744673,
2003-12-23, 01:34:00,VALID,918.772,VALID,0,VALID,98.9334,VALID,0,VALID,18.3799,VALID,110,VALID,0.675037,
2003-12-23, 01:35:00,VALID,918.755,VALID,0,VALID,99.3377,VALID,-0.0339617,VALID,18.3995,VALID,109,VALID,0.93064,
2003-12-23, 01:36:00,VALID,918.736,VALID,0,VALID,99.6633,VALID,-0.0169808,VALID,18.454,VALID,110,VALID,1.07448,
2003-12-23, 01:37:00,VALID,918.723,VALID,0,VALID,99.704,VALID,0,VALID,18.5031,VALID,115,VALID,1.1319,
2003-12-23, 01:38:00,VALID,918.721,VALID,0,VALID,99.5399,VALID,-0.0169808,VALID,18.5259,VALID,121,VALID,1.06374,
2003-12-23, 01:39:00,VALID,918.714,VALID,0,VALID,99.2347,VALID,0,VALID,18.5125,VALID,123,VALID,1.15234,
2003-12-23, 01:40:00,VALID,918.718,VALID,0,VALID,99.0682,VALID,-0.0509425,VALID,18.4807,VALID,124,VALID,1.0338,
2003-12-23, 01:41:00,VALID,918.718,VALID,0,VALID,99.0313,VALID,0,VALID,18.4703,VALID,123,VALID,1.0657,
2003-12-23, 01:42:00,VALID,918.722,VALID,0,VALID,98.8545,VALID,0,VALID,18.4613,VALID,121,VALID,0.864139,
2003-12-23, 01:43:00,VALID,918.719,VALID,0,VALID,98.6663,VALID,-0.0509425,VALID,18.4328,VALID,121,VALID,0.659624,
2003-12-23, 01:44:00,VALID,918.72,VALID,0,VALID,98.5099,VALID,-0.0509425,VALID,18.4005,VALID,121,VALID,0.71147,
2003-12-23, 01:45:00,VALID,918.703,VALID,0,VALID,98.632,VALID,-0.0339617,VALID,18.3806,VALID,121,VALID,0.636161,
2003-12-23, 01:46:00,VALID,918.682,VALID,0,VALID,98.7655,VALID,-0.0339617,VALID,18.3779,VALID,121,VALID,0.683689,
2003-12-23, 01:47:00,VALID,918.653,VALID,0,VALID,99.058,VALID,-0.0339617,VALID,18.394,VALID,120,VALID,0.932884,
2003-12-23, 01:48:00,VALID,918.643,VALID,0,VALID,99.2411,VALID,-0.0849042,VALID,18.4295,VALID,119,VALID,1.0731,
2003-12-23, 01:49:00,VALID,918.62,VALID,0,VALID,99.1076,VALID,-0.0679233,VALID,18.4397,VALID,126,VALID,1.17578,
2003-12-23, 01:50:00,VALID,918.626,VALID,0,VALID,99.0059,VALID,-0.0509425,VALID,18.4295,VALID,126,VALID,1.24033,
2003-12-23, 01:51:00,VALID,918.625,VALID,0,VALID,98.838,VALID,-0.0849042,VALID,18.4293,VALID,127,VALID,1.23403,
2003-12-23, 01:52:00,VALID,918.625,VALID,0,VALID,98.5277,VALID,-0.0509425,VALID,18.4231,VALID,129,VALID,0.989099,
2003-12-23, 01:53:00,VALID,918.633,VALID,0,VALID,98.3561,VALID,-0.0679233,VALID,18.4069,VALID,129,VALID,0.843403,
2003-12-23, 01:54:00,VALID,918.623,VALID,0,VALID,98.1742,VALID,-0.101885,VALID,18.394,VALID,129,VALID,0.835007,
2003-12-23, 01:55:00,VALID,918.621,VALID,0,VALID,98,VALID,-0.0339617,VALID,18.3585,VALID,125,VALID,0.724382,
2003-12-23, 01:56:00,VALID,918.602,VALID,0,VALID,98.0318,VALID,-0.0679233,VALID,18.3195,VALID,122,VALID,0.617378,
2003-12-23, 01:57:00,VALID,918.59,VALID,0,VALID,97.9898,VALID,-0.0849042,VALID,18.2971,VALID,114,VALID,0.661644,
2003-12-23, 01:58:00,VALID,918.591,VALID,0,VALID,98.2861,VALID,-0.0849042,VALID,18.2872,VALID,107,VALID,0.615412,
2003-12-23, 01:59:00,VALID,918.584,VALID,0,VALID,98.5392,VALID,-0.0679233,VALID,18.2964,VALID,97,VALID,0.550102,
2003-12-23, 02:00:00,VALID,918.573,VALID,0,VALID,98.5583,VALID,-0.0849042,VALID,18.3327,VALID,101,VALID,0.517987,
2003-12-23, 02:01:00,VALID,918.567,VALID,0,VALID,98.5532,VALID,-0.0509425,VALID,18.3391,VALID,101,VALID,0.573933,
2003-12-23, 02:02:00,VALID,918.57,VALID,0,VALID,98.707,VALID,-0.0679233,VALID,18.3654,VALID,101,VALID,0.578635,
2003-12-23, 02:03:00,VALID,918.555,VALID,0,VALID,98.7706,VALID,-0.0509425,VALID,18.4005,VALID,101,VALID,0.503811,
2003-12-23, 02:04:00,VALID,918.563,VALID,0,VALID,98.7566,VALID,-0.0509425,VALID,18.436,VALID,102,VALID,0.419331,
2003-12-23, 02:05:00,VALID,918.573,VALID,0,VALID,98.4794,VALID,-0.0679233,VALID,18.4519,VALID,104,VALID,0.543527,
2003-12-23, 02:06:00,VALID,918.588,VALID,0,VALID,98.2315,VALID,-0.0679233,VALID,18.4392,VALID,114,VALID,0.792773,
2003-12-23, 02:07:00,VALID,918.598,VALID,0,VALID,98.2378,VALID,0,VALID,18.4291,VALID,119,VALID,0.804297,
2003-12-23, 02:08:00,VALID,918.608,VALID,0,VALID,98.4095,VALID,0.0339617,VALID,18.4118,VALID,109,VALID,0.658537,
2003-12-23, 02:09:00,VALID,918.625,VALID,0,VALID,98.7859,VALID,0.0339617,VALID,18.4673,VALID,108,VALID,0.55202,
2003-12-23, 02:10:00,VALID,918.623,VALID,0,VALID,98.8139,VALID,0.0339617,VALID,18.5056,VALID,98,VALID,0.581861,
2003-12-23, 02:11:00,VALID,918.647,VALID,0,VALID,98.4578,VALID,0.0679233,VALID,18.522,VALID,92,VALID,0.454545,
2003-12-23, 02:12:00,VALID,918.65,VALID,0,VALID,97.9924,VALID,0.0849042,VALID,18.4858,VALID,78,VALID,0.566406,
2003-12-23, 02:13:00,VALID,918.664,VALID,0,VALID,98.3612,VALID,0.0849042,VALID,18.4821,VALID,84,VALID,0.702939,
2003-12-23, 02:14:00,VALID,918.685,VALID,0,VALID,98.7248,VALID,0.0679233,VALID,18.5504,VALID,89,VALID,0.56622,
2003-12-23, 02:15:00,VALID,918.695,VALID,0,VALID,98.9041,VALID,0.0679233,VALID,18.6184,VALID,89,VALID,0.467969,
2003-12-23, 02:16:00,VALID,918.685,VALID,0,VALID,98.5761,VALID,0.0339617,VALID,18.673,VALID,89,VALID,0.27832,
2003-12-23, 02:17:00,VALID,918.681,VALID,0,VALID,98.4057,VALID,0.0509425,VALID,18.7026,VALID,89,VALID,0.34096,
2003-12-23, 02:18:00,VALID,918.664,VALID,0,VALID,98.4158,VALID,0.0169808,VALID,18.7413,VALID,89,VALID,0.363281,
2003-12-23, 02:19:00,VALID,918.646,VALID,0,VALID,98.2289,VALID,0.0339617,VALID,18.7766,VALID,89,VALID,0.49814,
2003-12-23, 02:20:00,VALID,918.622,VALID,0,VALID,97.9415,VALID,0.0679233,VALID,18.793,VALID,89,VALID,0.677827,
2003-12-23, 02:21:00,VALID,918.609,VALID,0,VALID,97.8423,VALID,0.101885,VALID,18.8091,VALID,89,VALID,0.533668,
2003-12-23, 02:22:00,VALID,918.589,VALID,0,VALID,97.7393,VALID,0,VALID,18.835,VALID,81,VALID,0.665179,
2003-12-23, 02:23:00,VALID,918.582,VALID,0,VALID,97.5524,VALID,-0.0509425,VALID,18.8781,VALID,79,VALID,0.657812,
2003-12-23, 02:24:00,VALID,918.549,VALID,0,VALID,97.3451,VALID,-0.0339617,VALID,18.8938,VALID,79,VALID,0.789807,
2003-12-23, 02:25:00,VALID,918.548,VALID,0,VALID,97.2205,VALID,-0.0169808,VALID,18.9425,VALID,80,VALID,0.661644,
2003-12-23, 02:26:00,VALID,918.53,VALID,0,VALID,96.7335,VALID,-0.0679233,VALID,18.9487,VALID,74,VALID,0.607465,
2003-12-23, 02:27:00,VALID,918.519,VALID,0,VALID,94.7549,VALID,0,VALID,18.7905,VALID,30,VALID,0.789608,
2003-12-23, 02:28:00,VALID,918.527,VALID,0,VALID,95.4034,VALID,0,VALID,18.6747,VALID,30,VALID,0.603379,
2003-12-23, 02:29:00,VALID,918.528,VALID,0,VALID,95.8981,VALID,0,VALID,18.5647,VALID,30,VALID,0.376302,
2003-12-23, 02:30:00,VALID,918.541,VALID,0,VALID,96.0583,VALID,0,VALID,18.4643,VALID,30,VALID,0.0935683,
2003-12-23, 02:31:00,VALID,918.535,VALID,0,VALID,96.572,VALID,-0.0509425,VALID,18.403,VALID,30,VALID,0.00106534,
2003-12-23, 02:32:00,VALID,918.534,VALID,0,VALID,96.8263,VALID,-0.0339617,VALID,18.3511,VALID,30,VALID,0,
2003-12-23, 02:33:00,VALID,918.526,VALID,0,VALID,96.895,VALID,-0.0169808,VALID,18.2994,VALID,30,VALID,0.0976563,
2003-12-23, 02:34:00,VALID,918.529,VALID,0,VALID,96.2109,VALID,-0.0339617,VALID,18.1996,VALID,30,VALID,0.318784,
2003-12-23, 02:35:00,VALID,918.52,VALID,0,VALID,96.2134,VALID,-0.0509425,VALID,18.0739,VALID,30,VALID,0.32207,
2003-12-23, 02:36:00,VALID,918.533,VALID,0,VALID,97.2078,VALID,-0.0339617,VALID,18.0647,VALID,30,VALID,0.418605,
2003-12-23, 02:37:00,VALID,918.531,VALID,0,VALID,97.5906,VALID,0,VALID,18.0702,VALID,30,VALID,0.416295,
2003-12-23, 02:38:00,VALID,918.546,VALID,0,VALID,98.0992,VALID,-0.0339617,VALID,18.07,VALID,30,VALID,0.306323,
2003-12-23, 02:39:00,VALID,918.552,VALID,0,VALID,98.6485,VALID,-0.0339617,VALID,18.1092,VALID,30,VALID,0.503711,
2003-12-23, 02:40:00,VALID,918.539,VALID,0,VALID,98.9842,VALID,-0.0509425,VALID,18.1551,VALID,30,VALID,0.541061,
2003-12-23, 02:41:00,VALID,918.538,VALID,0,VALID,98.7426,VALID,-0.0849042,VALID,18.132,VALID,30,VALID,0.367188,
2003-12-23, 02:42:00,VALID,918.542,VALID,0,VALID,98.3472,VALID,-0.0509425,VALID,18.0808,VALID,30,VALID,0.215625,
2003-12-23, 02:43:00,VALID,918.54,VALID,0,VALID,98.4654,VALID,-0.0679233,VALID,18.0259,VALID,31,VALID,0.411222,
2003-12-23, 02:44:00,VALID,918.522,VALID,0,VALID,98.9499,VALID,-0.0849042,VALID,18.0614,VALID,31,VALID,0.261364,
2003-12-23, 02:45:00,VALID,918.512,VALID,0,VALID,98.117,VALID,-0.0849042,VALID,17.9581,VALID,31,VALID,0.0296148,
2003-12-23, 02:46:00,VALID,918.494,VALID,0,VALID,97.0908,VALID,-0.0679233,VALID,17.7444,VALID,31,VALID,0.517442,
2003-12-23, 02:47:00,VALID,918.468,VALID,0,VALID,97.6414,VALID,-0.0169808,VALID,17.7063,VALID,32,VALID,0.590116,
2003-12-23, 02:48:00,VALID,918.455,VALID,0,VALID,98.5913,VALID,-0.0509425,VALID,17.7448,VALID,32,VALID,0.423399,
2003-12-23, 02:49:00,VALID,918.439,VALID,0,VALID,98.9779,VALID,-0.0679233,VALID,17.7704,VALID,32,VALID,0.24442,
2003-12-23, 02:50:00,VALID,918.439,VALID,0,VALID,99.3797,VALID,-0.0679233,VALID,17.8221,VALID,32,VALID,0.263775,
2003-12-23, 02:51:00,VALID,918.434,VALID,0,VALID,98.9753,VALID,-0.0849042,VALID,17.7933,VALID,103,VALID,0.545508,
2003-12-23, 02:52:00,VALID,918.424,VALID,0,VALID,98.8952,VALID,0,VALID,17.7352,VALID,135,VALID,0.760298,
2003-12-23, 02:53:00,VALID,918.423,VALID,0,VALID,99.1496,VALID,-0.0849042,VALID,17.7257,VALID,146,VALID,0.660528,
2003-12-23, 02:54:00,VALID,918.412,VALID,0,VALID,99.2818,VALID,-0.0169808,VALID,17.7186,VALID,135,VALID,0.898996,
2003-12-23, 02:55:00,VALID,918.406,VALID,0,VALID,99.2754,VALID,-0.0509425,VALID,17.7252,VALID,133,VALID,1.08501,
2003-12-23, 02:56:00,VALID,918.383,VALID,0,VALID,99.2716,VALID,-0.0169808,VALID,17.7059,VALID,133,VALID,0.891827,
2003-12-23, 02:57:00,VALID,918.385,VALID,0,VALID,99.3873,VALID,-0.0169808,VALID,17.719,VALID,133,VALID,0.97561,
2003-12-23, 02:58:00,VALID,918.393,VALID,0,VALID,99.4675,VALID,0,VALID,17.7126,VALID,130,VALID,1.06522,
2003-12-23, 02:59:00,VALID,918.396,VALID,0,VALID,99.7065,VALID,-0.0509425,VALID,17.7423,VALID,134,VALID,0.975034,
2003-12-23, 03:00:00,VALID,918.413,VALID,0,VALID,99.7841,VALID,-0.101885,VALID,17.7773,VALID,139,VALID,0.748285,
2003-12-23, 03:01:00,VALID,918.419,VALID,0,VALID,99.7027,VALID,0,VALID,17.7709,VALID,142,VALID,0.840376,
2003-12-23, 03:02:00,VALID,918.428,VALID,0,VALID,99.8146,VALID,-0.0679233,VALID,17.7868,VALID,138,VALID,1.12463,
2003-12-23, 03:03:00,VALID,918.418,VALID,0,VALID,99.9926,VALID,0,VALID,17.8283,VALID,138,VALID,1.1854,
2003-12-23, 03:04:00,VALID,918.395,VALID,0,VALID,100,VALID,-0.0169808,VALID,17.8963,VALID,135,VALID,1.2936,
2003-12-23, 03:05:00,VALID,918.381,VALID,0,VALID,100,VALID,-0.0339617,VALID,17.9996,VALID,134,VALID,1.14044,
2003-12-23, 03:06:00,VALID,918.365,VALID,0,VALID,100,VALID,-0.0679233,VALID,18.0294,VALID,133,VALID,1.18471,
2003-12-23, 03:07:00,VALID,918.354,VALID,0,VALID,100,VALID,-0.0509425,VALID,18.0388,VALID,125,VALID,1.19112,
2003-12-23, 03:08:00,VALID,918.346,VALID,0,VALID,100,VALID,-0.0679233,VALID,18.0679,VALID,128,VALID,1.10712,
2003-12-23, 03:09:00,VALID,918.339,VALID,0,VALID,100,VALID,-0.0339617,VALID,18.1262,VALID,122,VALID,1.07091,
2003-12-23, 03:10:00,VALID,918.325,VALID,0,VALID,100,VALID,-0.0849042,VALID,18.1841,VALID,120,VALID,1.02762,
2003-12-23, 03:11:00,VALID,918.299,VALID,0,VALID,99.8751,VALID,-0.101885,VALID,18.2067,VALID,122,VALID,0.989524,
2003-12-23, 03:12:00,VALID,918.278,VALID,0,VALID,99.5005,VALID,-0.0509425,VALID,18.1807,VALID,123,VALID,1.03052,
2003-12-23, 03:13:00,VALID,918.269,VALID,0,VALID,99.3835,VALID,-0.0339617,VALID,18.1712,VALID,137,VALID,0.984003,
2003-12-23, 03:14:00,VALID,918.256,VALID,0,VALID,99.2246,VALID,-0.0509425,VALID,18.1551,VALID,134,VALID,1.0522,
2003-12-23, 03:15:00,VALID,918.25,VALID,0,VALID,99.1839,VALID,-0.0339617,VALID,18.1482,VALID,142,VALID,0.957919,
2003-12-23, 03:16:00,VALID,918.235,VALID,0,VALID,99.1674,VALID,-0.0509425,VALID,18.1714,VALID,142,VALID,0.774709,
2003-12-23, 03:17:00,VALID,918.226,VALID,0,VALID,98.9486,VALID,-0.0169808,VALID,18.1387,VALID,140,VALID,0.974023,
2003-12-23, 03:18:00,VALID,918.208,VALID,0,VALID,98.9588,VALID,-0.0849042,VALID,18.1292,VALID,140,VALID,0.965021,
2003-12-23, 03:19:00,VALID,918.193,VALID,0,VALID,98.8406,VALID,-0.101885,VALID,18.1198,VALID,137,VALID,1.06745,
2003-12-23, 03:20:00,VALID,918.188,VALID,0,VALID,99.0936,VALID,-0.0339617,VALID,18.1389,VALID,134,VALID,1.24059,
2003-12-23, 03:21:00,VALID,918.177,VALID,0,VALID,98.9842,VALID,-0.0509425,VALID,18.1486,VALID,129,VALID,1.2104,
2003-12-23, 03:22:00,VALID,918.168,VALID,0,VALID,99.1089,VALID,-0.0509425,VALID,18.1417,VALID,126,VALID,1.35454,
2003-12-23, 03:23:00,VALID,918.156,VALID,0,VALID,99.1063,VALID,-0.0339617,VALID,18.1809,VALID,120,VALID,1.32685,
2003-12-23, 03:24:00,VALID,918.155,VALID,0,VALID,98.9499,VALID,-0.0509425,VALID,18.1874,VALID,122,VALID,1.47905,
2003-12-23, 03:25:00,VALID,918.151,VALID,0,VALID,98.8596,VALID,-0.0339617,VALID,18.197,VALID,122,VALID,1.38154,
2003-12-23, 03:26:00,VALID,918.14,VALID,0,VALID,99.2843,VALID,-0.0339617,VALID,18.2522,VALID,124,VALID,1.26973,
2003-12-23, 03:27:00,VALID,918.121,VALID,0,VALID,99.3301,VALID,-0.0679233,VALID,18.3066,VALID,132,VALID,1.1237,
2003-12-23, 03:28:00,VALID,918.093,VALID,0,VALID,99.147,VALID,-0.0339617,VALID,18.3647,VALID,126,VALID,1.04092,
2003-12-23, 03:29:00,VALID,918.073,VALID,0.2,VALID,99.1852,VALID,-0.0509425,VALID,18.4131,VALID,113,VALID,0.966406,
2003-12-23, 03:30:00,VALID,918.048,VALID,0,VALID,99.044,VALID,-0.0509425,VALID,18.4581,VALID,104,VALID,0.829578,
2003-12-23, 03:31:00,VALID,918.048,VALID,0,VALID,98.9931,VALID,-0.0169808,VALID,18.4939,VALID,103,VALID,0.668713,
2003-12-23, 03:32:00,VALID,918.038,VALID,0,VALID,98.7681,VALID,0,VALID,18.51,VALID,109,VALID,0.724132,